Вернуться в каталог

SL-12 R/B(2)

АктивенGEO
NORAD 15581·ROCKET BODY·🇷🇺 Russia

Запущен Feb 21, 1985 с Baikonur Cosmodrome

Loading…

TLE

СвежийSource: Space-Track

Эпоха: Sep 14, 2026, 18:13 UTC

1 15581U 85016F   26257.75958753  .00000058  00000-0  00000-0 0  9994
2 15581   9.4902 315.7624 0026141 259.4490 264.0660  0.99405761122821

Отслеживайте SL-12 R/B(2) в реальном времени с AllMySat

Download on the App Store